Regional Weather Roundup
Issued by NWS

Home | Current Version | Previous Version | Graphics & Text | Print | Product List | Glossary On
Versions: 1 2 3 4 5 6 7 8 9 10 11 12 13 14 15 16 17 18 19 20 21 22 23 24 25 26 27 28 29 30 31 32 33 34 35 36 37 38 39 40 41 42 43 44 45 46 47 48 49 50
000
ASUS43 KMPX 210110
RWRMN
WEATHER ROUNDUP FOR MINNESOTA
NATIONAL WEATHER SERVICE TWIN CITIES/CHANHASSEN MN
800 PM CDT SUN AUG 20 2017


NOTE: "FAIR" INDICATES FEW OR NO CLOUDS BELOW 12,000 FEET WITH NO
SIGNIFICANT WEATHER AND/OR OBSTRUCTIONS TO VISIBILITY. N/A MEANS
CURRENT SKY AND/OR WEATHER CONDITIONS ARE NOT AVAILABLE.

MNZ060>063-068>070-210200-
   Twin Cities Metro

CITY           SKY/WX    TMP DP  RH WIND       PRES   REMARKS
TWIN CITIES    PTCLDY    79  65  62 NW12      29.97R
ST PAUL        MOCLDY    78  67  68 N10       29.97R
CRYSTAL        PTCLDY    76  63  64 N7        29.97R
BLAINE         MOCLDY    77  66  69 NW9       29.98R
LAKEVILLE      PTCLDY    73  73 100 NW3       29.97S
EDEN PRAIRIE   MOCLDY    77  65  66 N12       29.97R
SOUTH ST PAUL  CLOUDY    79  65  61 N10       29.97R
LAKE ELMO      FAIR      75  68  78 NW6       29.99R
$$
MNZ001>005-007-008-013>017-022>024-027-028-210200-
   Northwest Minnesota

CITY           SKY/WX    TMP DP  RH WIND       PRES   REMARKS
BEMIDJI        CLEAR     68  50  52 W6        30.00S
HALLOCK        CLEAR     72  41  33 NW3       29.96S
ROSEAU         CLEAR     72  52  49 CALM      29.97R
WARROAD        CLEAR     70  52  52 W3        29.96S
THIEF RVR FALL CLEAR     70  44  39 W5        30.00R
CROOKSTON      CLEAR     72  46  40 CALM      30.00R
FOSSTON        CLEAR     70  46  43 W3        30.01S
DETROIT LAKES  CLEAR     66  54  63 W3        30.04R
MOORHEAD       CLEAR     68  55  64 SW3       30.02R
PARK RAPIDS    CLEAR     67  57  70 SW5       30.02R
MAHNOMEN       FAIR      69  50  50 SW5       30.01S
$$
MNZ006-009>011-018-025>026-210200-
   North Central Minnesota

CITY           SKY/WX    TMP DP  RH WIND       PRES   REMARKS
BAUDETTE       CLEAR     68  48  48 W5        29.96R
FLAG ISLAND      N/A     72  50  46 CALM      29.93S HAZE
INTL FALLS     CLEAR     66  50  56 W5        29.95R
WASKISH        CLEAR     70  50  49 W7        29.98R
BIG FORK       MOCLDY    64  54  68 SW5       29.98S
LONGVILLE      CLOUDY    64  57  77 CALM      30.01R
GRAND RAPIDS   MOCLDY    69  55  60 W5        30.02R
CRANE LAKE     PTCLDY    66  54  63 CALM      29.96R
ORR            PTCLDY    64  54  68 CALM      29.94S
COOK           CLOUDY    64  57  77 CALM      29.98R
WALKER         FAIR      66  55  69 SW5       30.01R
$$
MNZ012-019>021-037-210200-
   Northeast Minnesota

CITY           SKY/WX    TMP DP  RH WIND       PRES   REMARKS
DULUTH         PTCLDY    66  57  72 W6        29.98R
ELY            PTCLDY    64  54  68 CALM      29.96R
HIBBING        PTCLDY    65  56  72 W3        29.98R
EVELETH        CLEAR     65  52  62 W3        29.99R
DULUTH HARBOR  CLEAR     73  63  68 W9        29.96R
TWO HARBORS    CLEAR     70  59  68 NW3       29.94R
SILVER BAY     CLEAR     66  61  82 CALM      29.93R
GRAND MARAIS     N/A     67  60  78 NW3       29.90R
G MARAIS ARPRT CLEAR     64  50  59 W5        29.96R
$$
MNZ029>031-032-039>041-046>048-054>057-064-210200-
   West Central Minnesota

CITY           SKY/WX    TMP DP  RH WIND       PRES   REMARKS
FERGUS FALLS   PTCLDY    66  57  72 NW5       30.02R
WHEATON        CLOUDY    66  61  82 CALM      30.04S
MORRIS         PTCLDY    66  63  88 NW3       30.01S
ALEXANDRIA     CLOUDY    68  58  70 W6        30.04S
ELBOW LAKE     FAIR      66  60  79 W5        30.03S
WADENA         PTCLDY    66  55  68 CALM      30.02S
GLENWOOD       PTCLDY    66  63  88 NW6       30.03F
APPLETON       MOCLDY    70  61  73 CALM      30.01S
BENSON         CLOUDY    68  61  77 CALM      30.02F
ORTONVILLE     CLOUDY    66  61  82 MISG      30.00F
MADISON        CLOUDY    70  61  73 CALM      30.02S
WILLMAR        FAIR      70  64  83 NW5       30.03F
$$
MNZ033>034-036-042>043-049>051-058-059-210200-
   Central Minnesota

CITY           SKY/WX    TMP DP  RH WIND       PRES   REMARKS
ST CLOUD       PTCLDY    71  61  70 N5        30.00R
SAUK CENTRE    FAIR      69  59  71 W6        30.03R
PAYNESVILLE    MOCLDY    69  61  74 W3        30.02S
AITKIN         MOCLDY    64  61  88 CALM      30.00R
PINE RIVER     CLOUDY    66  54  63 NW3       30.05R
BRAINERD       CLOUDY    69  57  65 W3        30.01R
STAPLES        CLEAR     64  57  77 W3        30.02S
LONG PRAIRIE   FAIR      68  57  68 SW5       30.03R
LITTLE FALLS   PTCLDY    66  59  77 CALM      30.02R
LITCHFIELD     PTCLDY    72  64  78 NW6       30.02R
BUFFALO        CLOUDY    73  62  70 NW3       30.01R
MAPLE LAKE     CLEAR     72  65  78 NW3       30.01S
HUTCHINSON     CLEAR     71  65  81 NW3       30.02R
$$
MNZ037-044-045-052-053-210200-
   East Central Minnesota

CITY           SKY/WX    TMP DP  RH WIND       PRES   REMARKS
PRINCETON      CLOUDY    72  63  73 CALM      30.00R
MORA           CLOUDY    64  57  77 NW3       30.02R
CAMBRIDGE      CLOUDY    73  61  64 NW3       29.99S
RUSH CITY      CLOUDY    70  64  80 CALM      29.99R HAZE
MOOSE LAKE     CLEAR     68  57  68 W3        29.98R
HINCKLEY       FAIR      70  61  73 W3        29.99R
CLOQUET        CLEAR     66  55  68 W3        29.99R
MCGREGOR       CLEAR     68  55  64 CALM      30.01R
$$
MNZ071>073-080-081-089-090-097-098-210200-
   Southwest Minnesota

CITY           SKY/WX    TMP DP  RH WIND       PRES   REMARKS
MONTEVIDEO     CLOUDY    70  61  73 CALM      30.01F
GRANITE FALLS  PTCLDY    70  64  82 N7        30.03S
CANBY          PTCLDY    68  61  77 CALM      30.03F
MARSHALL       MOCLDY    68  63  84 N5        30.02S
REDWOOD FALLS  CLOUDY    71  64  78 NW6       30.01R
OLIVIA         CLOUDY    70  63  78 NW5       30.01R
PIPESTONE      CLOUDY    72  63  73 NE7       30.03R
WINDOM         CLEAR     72  66  83 N5        30.02R
WORTHINGTON    CLOUDY    72  65  78 N12       30.03R
JACKSON        CLOUDY    73  68  83 CALM      30.01R
TRACY          CLOUDY    69  65  88 N7        30.03R
SLAYTON        CLOUDY    70  61  74 N7        30.04R
$$
MNZ065>067-074>077-082>085-091>093-210200-
   South Central Minnesota

CITY           SKY/WX    TMP DP  RH WIND       PRES   REMARKS
MANKATO        CLOUDY    77  71  82 N3        29.98R
NEW ULM        MOCLDY    73  64  73 N7        29.99R
ST JAMES       CLEAR     75  70  83 NW6       30.00R
FAIRMONT       CLEAR     76  72  87 N6        29.99R
GLENCOE        CLOUDY    73  69  88 NW7       30.00R
FARIBAULT      LGT RAIN  77  72  83 CALM      29.98R
OWATONNA       MOCLDY    75  72  88 NW5       29.99R
WASECA         PTCLDY    75  72  88 N3        30.00R
ALBERT LEA     PTCLDY    79  73  83 CALM      29.99R
$$
MNZ078>079-086>088-094>096-210200-
   Southeast Minnesota

CITY           SKY/WX    TMP DP  RH WIND       PRES   REMARKS
ROCHESTER      PTCLDY    77  68  73 CALM      29.99S
RED WING       TSTM      79  68  69 CALM      29.95R
STANTON        PTCLDY    77  72  85 CALM      29.96R
DODGE CENTER   PTCLDY    73  68  83 S3        29.99S THUNDER
WINONA         CLEAR     77  68  73 CALM      29.96S
AUSTIN         CLEAR     75  68  78 CALM      29.99R
PRESTON        CLEAR     75  66  73 S5        30.00S
$$
ABBREVIATIONS USED IN REMARKS
   TC - TEMPERATURES IN CELSIUS
  WCI - WIND CHILL INDEX
   HX - HEAT INDEX
  VSB - VISIBILITY
$$




USA.gov is the U.S. government's official web portal to all federal, state and local government web resources and services.